Location: ???????
(55.4362°N, 38.1183°E)
Time: 20:41:02
(UTC+00:00)

USA 267 - Pass Details

Date: 24 October 2021
Orbit: 1101 x 1107 km, 123.0° (Epoch: 27 November)

Event Time Altitude Azimuth Distance (km) Brightness Sun altitude
Rises 16:08:48 0° 162° (SSE) 3,907 5.9 -17.9°
Reaches altitude 10° 16:11:45 10° 175° (S) 2,952 5.4 -18.4°
Maximum altitude 16:17:03 26° 229° (SW) 2,013 5.1 -19.1°
Drops below altitude 10° 16:22:23 10° 284° (WNW) 2,964 6.7 -19.9°
Sets 16:25:22 0° 297° (WNW) 3,925 7.5 -20.3°
